Location: Rio Tanui
(39.9167°N, 8.5167°E)
Time: 14:07:49
(UTC+00:00)

Meteor 2-2 Rocket - Pass Details

Date: 21 June 2024
Orbit: 851 x 928 km, 81.3° (Epoch: 18 July)

Event Time Altitude Azimuth Distance (km) Brightness Sun altitude
Rises 03:10:35 0° 343° (NNW) 3,429 7.7 -8.1°
Reaches altitude 10° 03:13:06 10° 338° (NNW) 2,487 6.9 -7.8°
Maximum altitude 03:18:24 45° 267° (W) 1,154 4.6 -7.0°
Drops below altitude 10° 03:23:43 10° 196° (SSW) 2,482 6.2 -6.2°
Sets 03:26:13 0° 190° (S) 3,421 6.9 -5.8°
